Location: Dzierzno
(50.6159°N, 19.2852°E)
Time: 01:42:09
(UTC+00:00)

Cosmos 540 Rocket - Pass Details

Date: 18 November 2025
Orbit: 735 x 748 km, 74.1° (Epoch: 04 December)

Event Time Altitude Azimuth Distance (km) Brightness Sun altitude
Rises 16:37:34 0° 332° (NNW) 3,202 6.9 -16.3°
Reaches altitude 10° 16:39:59 10° 327° (NNW) 2,272 6.2 -16.7°
Maximum altitude 16:44:56 51° 253° (WSW) 940 4.4 -17.5°
Drops below altitude 10° 16:49:51 10° 179° (S) 2,247 6.0 -18.3°
Sets 16:52:14 0° 174° (S) 3,164 6.7 -18.6°
